EW7069 Weather Reports


Display with metric or nautical units.
time (UTC)temp
F
wind
direction
speed
MPH
gust
MPH
rain 1hr
in
rain 24hr
in
rain mn
in
humidity
%
barometer
mb
20260508153004 61 214 3.0 4.0 0.00 0.00 0.00 33 998.9
20260508152005 60 110 1.0 3.0 0.00 0.00 0.00 38 998.9
20260508151004 59 270 3.0 4.0 0.00 0.00 0.00 35 998.8
20260508150004 59 270 3.0 4.0 0.00 0.00 0.00 38 998.8
20260508145004 59 247 3.0 4.0 0.00 0.00 0.00 37 998.7
20260508144004 58 5 2.0 2.0 0.00 0.00 0.00 37 998.6
20260508143004 58 299 2.0 3.0 0.00 0.00 0.00 44 998.7
20260508142004 57 270 1.0 2.0 0.00 0.00 0.00 46 998.6
20260508141004 56 270 1.0 2.0 0.00 0.00 0.00 49 998.7
20260508140005 54 270 2.0 3.0 0.00 0.00 0.00 51 998.7
20260508135004 53 270 3.0 4.0 0.00 0.00 0.00 57 998.7
20260508134004 53 270 3.0 4.0 0.00 0.00 0.00 59 998.8
20260508133004 52 270 3.0 4.0 0.00 0.00 0.00 62 998.8
20260508132004 51 270 3.0 4.0 0.00 0.00 0.00 65 998.9
20260508131005 51 270 3.0 5.0 0.00 0.00 0.00 71 999.0
20260508130004 50 270 3.0 6.0 0.00 0.00 0.00 79 999.1
20260508125004 49 270 4.0 6.0 0.00 0.00 0.00 85 999.2
20260508124004 47 270 4.0 6.0 0.00 0.00 0.00 88 999.3
20260508123005 44 270 3.0 4.0 0.00 0.00 0.00 89 999.5
20260508121003 40 270 1.0 4.0 0.00 0.00 0.00 89 999.5
20260508120003 39 270 0.0 1.0 0.00 0.00 0.00 89 999.7
20260508115003 38 0 0.0 0.0 0.00 0.00 0.00 88 999.7
20260508112004 35 0 0.0 0.0 0.00 0.00 0.00 84 999.4
20260508110004 34 0 0.0 0.0 0.00 0.00 0.00 83 998.4
20260508105003 34 0 0.0 0.0 0.00 0.00 0.00 83 998.3
20260508104004 34 0 0.0 0.0 0.00 0.00 0.00 83 997.3
20260508103003 34 0 0.0 0.0 0.00 0.00 0.00 83 996.7
20260508102003 35 0 0.0 0.0 0.00 0.00 0.00 83 996.6
20260508101004 35 0 0.0 0.0 0.00 0.00 0.00 83 996.6
20260508100004 35 0 0.0 0.0 0.00 0.00 0.00 82 996.8
20260508095003 35 0 0.0 0.0 0.00 0.00 0.00 82 997.1
20260508094003 35 0 0.0 0.0 0.00 0.00 0.00 82 996.7
20260508093003 35 0 0.0 0.0 0.00 0.00 0.00 82 996.8
20260508091003 36 0 0.0 0.0 0.00 0.00 0.00 81 997.1
20260508090004 36 0 0.0 0.0 0.00 0.00 0.00 81 996.9
20260508085003 36 0 0.0 0.0 0.00 0.00 0.00 81 997.3
20260508084003 36 0 0.0 0.0 0.00 0.00 0.00 81 997.4
20260508083003 37 0 0.0 0.0 0.00 0.00 0.00 81 997.1
20260508082003 37 0 0.0 0.0 0.00 0.00 0.00 81 997.2
20260508081004 38 0 0.0 0.0 0.00 0.00 0.00 85 997.4
20260508080003 38 0 0.0 0.0 0.00 0.00 0.00 85 997.7
20260508075003 39 0 0.0 0.0 0.00 0.00 0.00 85 997.5
20260508074003 39 0 0.0 0.0 0.00 0.00 0.00 84 997.6
20260508073002 38 0 0.0 0.0 0.00 0.00 0.00 84 997.9
20260508071002 37 0 0.0 0.0 0.00 0.00 0.00 78 998.0
20260508070002 36 0 0.0 0.0 0.00 0.00 0.00 78 997.8
20260508065002 36 0 0.0 0.0 0.00 0.00 0.00 76 998.0
20260508064002 36 0 0.0 0.0 0.00 0.00 0.00 76 998.1
20260508062002 37 0 0.0 0.0 0.00 0.00 0.00 74 998.0
20260508060002 38 0 0.0 0.0 0.00 0.00 0.00 78 998.6
20260508055002 39 0 0.0 0.0 0.00 0.00 0.00 78 998.5
20260508054002 39 0 0.0 0.0 0.00 0.00 0.00 77 998.3
20260508053002 39 0 0.0 0.0 0.00 0.00 0.00 77 998.4
20260508052002 39 0 0.0 0.0 0.00 0.00 0.00 77 998.6
20260508051002 39 0 0.0 0.0 0.00 0.00 0.00 77 998.7
20260508045002 38 0 0.0 0.0 0.00 0.00 0.00 74 998.4
20260508044002 38 0 0.0 0.0 0.00 0.00 0.00 73 998.6
20260508043003 39 0 0.0 0.0 0.00 0.00 0.00 72 998.8
20260508042002 39 0 0.0 0.0 0.00 0.00 0.00 71 998.9
20260508041002 40 0 0.0 0.0 0.00 0.00 0.00 70 999.0
20260508040003 40 0 0.0 0.0 0.00 0.00 0.00 69 999.2
20260508034002 41 0 0.0 0.0 0.00 0.00 0.00 65 999.5
20260508032003 42 0 0.0 0.0 0.00 0.00 0.00 62 999.7
20260508031002 42 0 0.0 0.0 0.00 0.00 0.00 61 999.9
20260508024002 45 0 0.0 0.0 0.00 0.00 0.00 55 1000.1
20260508023002 45 0 0.0 0.0 0.00 0.00 0.00 54 1000.2
20260508022002 46 270 0.0 1.0 0.00 0.00 0.00 53 1000.1
20260508020002 47 270 1.0 2.0 0.00 0.00 0.00 52 1000.1
20260508014002 49 270 2.0 6.0 0.00 0.00 0.00 47 999.8
20260508013002 49 270 4.0 6.0 0.00 0.00 0.00 45 1000.2
20260508012003 50 266 5.0 8.0 0.00 0.00 0.00 43 1000.5
20260508011002 50 292 4.0 8.0 0.00 0.00 0.00 42 1000.7
20260508010003 50 275 4.0 8.0 0.00 0.00 0.00 40 1002.2
20260508005002 51 248 3.0 4.0 0.00 0.00 0.00 35 1002.7
20260508004002 51 266 4.0 8.0 0.00 0.00 0.00 34 1002.9
20260508003003 51 262 4.0 11.0 0.00 0.00 0.00 33 1003.1
20260508002002 51 249 5.0 9.0 0.00 0.00 0.00 31 1003.3
20260508001003 51 293 5.0 8.0 0.00 0.00 0.00 31 1003.7
20260508000004 52 314 2.0 3.0 0.00 0.00 0.00 30 1003.9
20260507234002 53 314 1.0 4.0 0.00 0.00 0.00 29 1004.6
20260507233003 53 314 3.0 6.0 0.00 0.00 0.00 27 1004.7
20260507232002 53 314 5.0 8.0 0.00 0.00 0.00 25 1005.0
20260507231003 54 314 3.0 5.0 0.00 0.00 0.00 27 1005.2
20260507230002 54 314 3.0 7.0 0.00 0.00 0.00 24 1005.3
20260507225002 54 314 5.0 9.0 0.00 0.00 0.00 23 1005.7
20260507224003 55 314 5.0 8.0 0.00 0.00 0.00 24 1005.7
20260507223002 55 314 6.0 8.0 0.00 0.00 0.00 23 1006.1
20260507222003 55 314 6.0 9.0 0.00 0.00 0.00 23 1006.4
20260507221003 57 315 5.0 6.0 0.00 0.00 0.00 24 1007.1
20260507220002 59 314 6.0 9.0 0.00 0.00 0.00 22 998.3
20260507215003 56 314 7.0 10.0 0.00 0.00 0.00 24 1006.5
20260507211002 56 314 7.0 13.0 0.00 0.00 0.00 23 1005.4
20260507210002 59 314 8.0 13.0 0.00 0.00 0.00 20 1005.6
20260507204002 60 321 10.0 15.0 0.00 0.00 0.00 20 1004.8
20260507203002 62 355 8.0 15.0 0.00 0.00 0.00 21 1004.4
20260507201002 56 334 12.0 16.0 0.00 0.00 0.00 23 1003.6
20260507200003 59 310 11.0 16.0 0.00 0.00 0.00 22 1003.5
20260507195002 61 303 9.0 16.0 0.00 0.00 0.00 21 1003.4
20260507192003 57 314 9.0 21.0 0.00 0.00 0.00 28 1002.4
20260507191004 56 314 10.0 14.0 0.00 0.00 0.00 25 1002.2
20260507185003 56 240 9.0 15.0 0.00 0.00 0.00 28 1001.8
20260507183003 54 225 7.0 10.0 0.00 0.00 0.00 24 1000.8
20260507182003 54 225 12.0 25.0 0.00 0.00 0.00 23 1000.7
20260507180003 53 225 9.0 16.0 0.00 0.00 0.00 25 1000.7
20260507175002 54 225 8.0 13.0 0.00 0.00 0.00 24 1000.4
20260507172002 55 225 8.0 12.0 0.00 0.00 0.00 28 999.6
20260507170003 55 292 11.0 16.0 0.00 0.00 0.00 25 998.8
20260507165003 55 271 7.0 11.0 0.00 0.00 0.00 28 998.6
20260507163003 53 267 8.0 12.0 0.00 0.00 0.00 30 998.3
20260507162002 53 315 9.0 14.0 0.00 0.00 0.00 29 998.3
20260507161003 53 314 8.0 13.0 0.00 0.00 0.00 31 998.2
20260507160003 52 314 8.0 10.0 0.00 0.00 0.00 31 997.9
20260507155003 52 314 9.0 15.0 0.00 0.00 0.00 32 997.9
20260507154003 52 318 9.0 14.0 0.00 0.00 0.00 31 997.8